Lid_Strength_Index
14 14 14 13 14 13 14 14 16 14 16 12 11 12 12 12 13 13 13 13 13 13 13 13 12 12 12 12 13 14 15 16 16 16 16 15 16 16 15 15 16 16 16 15
17 13 14 15 13 13 13 13 13 14 15 13 10 10 12 12 12 12 12 12 12 12 11 11 11 11 12 13 15 14 15 15 15 15 16 16 16 16 16 16 16 16 16 16
20 16 15 19 15 13 13 12 12 15 14 11 11 11 11 11 11 11 11 11 11 10 10 10 10 11 13 13 14 15 15 15 15 16 16 16 16 16 16 17 17 17 17 16
17 16 22 15 13 12 12 11 10 13 13 12 11 11 10 10 10 10 10 10 10 9 9 10 10 12 13 14 14 15 15 15 15 16 16 16 17 17 17 17 17 17 16 16
17 18 16 16 13 12 13 13 10 12 12 13 12 12 13 11 10 10 9 9 8 8 9 10 10 11 12 14 14 15 15 15 16 16 16 17 17 17 17 17 17 17 16 16
15 21 22 17 14 12 10 15 14 12 12 13 13 15 14 12 12 11 10 9 9 9 9 10 11 12 13 14 14 14 14 14 16 16 16 17 17 17 17 17 16 17 16 17
17 17 18 15 15 12 16 15 14 13 11 12 13 14 14 14 14 14 14 14 13 12 11 12 13 13 13 14 14 14 14 15 16 16 16 16 17 17 18 18 17 18 18 17
16 19 21 16 12 13 15 14 14 13 12 13 14 14 15 15 16 15 16 15 14 13 14 15 14 14 15 15 16 17 17 17 17 17 17 17 18 19 19 19 20 19 20 19
14 17 15 15 15 14 14 14 14 13 13 13 14 15 15 15 16 16 16 15 15 15 15 15 18 17 17 17 18 19 20 20 20 20 18 18 19 20 21 21 19 19 19 19
16 16 16 15 14 15 15 14 14 14 14 14 15 15 15 15 16 15 15 15 16 17 18 18 19 18 17 18 19 20 19 20 21 21 21 21 19 18 19 20 20 19 20 20
17 16 15 15 15 15 15 15 15 15 14 14 14 15 15 16 16 16 16 18 19 19 19 19 20 19 21 19 21 20 21 21 21 20 21 20 19 18 18 18 18 20 19 20
16 15 15 15 15 15 15 15 15 14 15 15 15 15 15 16 17 17 18 20 19 20 20 20 21 21 21 23 22 22 20 20 20 20 21 20 20 19 16 14 14 14 14 17
15 15 14 15 15 16 15 15 15 15 15 15 17 17 17 16 18 20 21 21 21 22 23 23 23 22 22 24 25 24 21 19 20 20 20 20 21 20 20 17 15 14 13 13
18 17 15 16 16 18 18 20 21 22 22 21 22 23 24 23 23 23 23 23 24 26 25 26 26 24 23 26 27 25 23 22 22 20 22 23 21 21 21 21 20 18 17 14
19 19 18 19 19 19 20 20 19 19 22 22 25 26 26 24 24 24 25 26 26 28 27 27 26 23 25 26 25 25 24 24 26 24 25 23 23 23 21 21 21 20 22 19
21 22 20 20 21 21 22 21 22 21 24 25 25 24 26 27 28 28 27 28 24 22 23 25 26 24 26 27 27 27 28 26 25 25 24 25 23 22 21 21 21 20 20 20
21 20 22 22 24 24 24 26 26 26 27 26 27 28 28 26 27 24 24 28 29 28 29 30 27 26 28 30 31 28 27 27 26 26 25 23 23 22 21 21 20 20 20 19
27 26 28 26 26 26 26 29 30 29 28 29 29 29 26 26 28 27 26 27 27 27 29 30 30 28 27 28 28 28 28 27 27 27 24 24 23 22 22 21 21 21 21 21
30 27 28 25 29 28 29 28 30 31 30 31 28 27 31 31 31 31 28 27 26 26 24 27 23 25 27 27 24 30 28 27 26 25 25 24 24 23 23 23 23 22 22 21
29 30 29 29 30 30 28 31 31 29 31 32 31 27 26 26 27 27 29 30 30 28 28 27 27 27 27 26 26 28 28 28 27 26 25 25 24 24 23 24 23 22 22 22
29 30 28 28 28 28 29 31 30 27 28 29 27 28 30 28 28 31 30 29 27 28 27 27 27 26 26 27 27 29 29 28 28 27 26 25 24 24 24 24 23 23 22 23
30 28 27 27 27 27 27 28 27 28 28 28 29 29 28 27 28 29 32 29 26 26 25 25 25 25 24 24 25 27 28 29 28 27 26 26 25 24 24 23 23 23 23 23
27 27 27 27 29 31 32 29 29 31 30 31 31 30 30 30 30 29 27 27 25 26 25 25 25 23 22 24 25 27 28 28 28 27 26 26 25 24 24 23 23 23 24 25
27 28 30 32 32 29 29 30 31 31 33 33 32 32 32 28 27 34 30 26 26 25 26 26 24 22 24 26 26 27 27 27 27 26 26 25 25 25 24 23 24 23 24 23
29 32 32 31 29 30 32 31 32 31 31 32 31 31 32 32 31 26 26 27 26 26 26 26 23 24 26 27 27 27 26 26 26 25 25 25 25 24 24 23 23 23 23 22
30 31 31 32 31 30 30 30 31 31 32 31 32 31 28 27 27 27 26 26 27 27 27 26 26 27 27 27 27 27 27 26 26 25 24 24 23 23 22 22 22 22 21 21
30 29 29 29 29 29 30 31 31 30 30 30 29 28 27 27 27 27 27 27 27 27 27 26 26 27 27 27 27 27 27 26 25 25 24 23 22 21 20 20 22 21 21 21